,

(GMT )
Cul'Man

Weather History for UELL - April, 2013

Change the Weather History Date:

Tuesday, April 30, 2013

  Actual Average Record
Temperature  
Mean Temperature 41 °F -  
Max Temperature 50 °F - - ()
Min Temperature 32 °F - - ()
Degree Days  
Heating Degree Days 24    
Moisture  
Dew Point 33 °F    
Average Humidity 74    
Maximum Humidity 100    
Minimum Humidity 37    
Precipitation  
Precipitation 0.00 in - - ()
Sea Level Pressure  
Sea Level Pressure 30.15 in    
Wind  
Wind Speed 3 mph ()    
Max Wind Speed 7 mph    
Max Gust Speed -    
Visibility 6.1 miles    
Events Fog    
T = Trace of Precipitation, MM = Missing Value Source: Averaged Metar Reports

Daily Weather History Graph

Daily Weather History Graph

Search for Another Location

Airport or City:

Astronomy

Apr. 30, 2013 Rise Set
Actual Time 5:56 AM +10 9:20 PM +10
Civil Twilight 5:10 AM +10 10:06 PM +10
Nautical Twilight 4:07 AM +10 11:10 PM +10
Astronomical Twilight 2:18 AM +10 1:10 AM +10
Moon 1:31 AM +10 (4/30) 9:25 AM +10 (4/30)
Length of Visible Light 16h 55m
Length of Day
15h 24m
Waning Gibbous, 76% of the Moon is Illuminated
Apr 30
Waning Gibbous
May 2
Last Quarter
May 10
New
May 18
First Quarter
May 25
Full

Hourly Weather History & Observations

Time (+10) Temp. Windchill Dew Point Humidity Pressure Visibility Wind Dir Wind Speed Gust Speed Precip Events Conditions
12:00 AM 33.8 °F 29.7 °F 33.8 °F 100% 30.09 in 6.2 mi West 4.5 mph - N/A   Overcast
12:30 AM 33.8 °F 29.7 °F 33.8 °F 100% 30.09 in 6.2 mi NW 4.5 mph - N/A   Overcast
1:00 AM 33.8 °F - 33.8 °F 100% 30.09 in 6.2 mi Variable 2.2 mph - N/A   Overcast
2:00 AM 33.8 °F - 33.8 °F 100% 30.12 in 6.2 mi Variable 2.2 mph - N/A   Overcast
3:00 AM 33.8 °F - 33.8 °F 100% 30.12 in 6.2 mi Variable 2.2 mph - N/A   Overcast
4:00 AM 34 °F - 33 °F 97% 30.22 in 31 mi 2.2 mph - -   Overcast
4:00 AM 33.8 °F - 33.8 °F 100% 30.12 in 6.2 mi Variable 2.2 mph - N/A   Overcast
5:00 AM 33.8 °F 29.7 °F 33.8 °F 100% 30.12 in 6.2 mi Variable 4.5 mph - N/A   Overcast
6:00 AM 33.8 °F - 33.8 °F 100% 30.12 in 6.2 mi NNW 2.2 mph - N/A   Overcast
6:30 AM 33.8 °F - 33.8 °F 100% 30.15 in 6.2 mi Variable 2.2 mph - N/A Fog Overcast
7:00 AM 32.0 °F - 32.0 °F 100% 30.15 in 0.5 mi Variable 2.2 mph - N/A Fog Fog
7:30 AM 33.8 °F - 33.8 °F 100% 30.15 in 6.2 mi Variable 2.2 mph - N/A Fog Overcast
8:00 AM 37.4 °F - 35.6 °F 93% 30.15 in 6.2 mi NNW 2.2 mph - N/A Fog Overcast
8:30 AM 37.4 °F - 37.4 °F 100% 30.15 in 6.2 mi Variable 2.2 mph - N/A Fog Overcast
9:00 AM 39.2 °F - 35.6 °F 87% 30.15 in 6.2 mi Variable 2.2 mph - N/A Fog Overcast
9:30 AM 39.2 °F - 35.6 °F 87% 30.15 in 6.2 mi Variable 2.2 mph - N/A Fog Overcast
10:00 AM 39 °F - 36 °F 86% 30.24 in 31 mi 2.2 mph - - Fog Light Fog
10:00 AM 39.2 °F - 35.6 °F 87% 30.18 in 6.2 mi Variable 2.2 mph - N/A Fog Overcast
10:30 AM 39.2 °F 36.0 °F 35.6 °F 87% 30.18 in 6.2 mi South 4.5 mph - N/A Fog Overcast
11:00 AM 39.2 °F - 35.6 °F 87% 30.18 in 6.2 mi SSE 2.2 mph - N/A   Overcast
11:30 AM 42.8 °F - 35.6 °F 76% 30.18 in 6.2 mi SSE 2.2 mph - N/A   Partly Cloudy
12:00 PM 42.8 °F - 35.6 °F 76% 30.18 in 6.2 mi Variable 2.2 mph - N/A   Overcast
12:30 PM 44.6 °F - 35.6 °F 71% 30.18 in 6.2 mi Variable 2.2 mph - N/A   Overcast
1:00 PM 46.4 °F - 35.6 °F 66% 30.15 in 6.2 mi Variable 2.2 mph - N/A   Overcast
1:30 PM 48.2 °F - 35.6 °F 62% 30.15 in 6.2 mi Variable 2.2 mph - N/A   Overcast
2:00 PM 50.0 °F - 32.0 °F 50% 30.15 in 6.2 mi Variable 2.2 mph - N/A   Mostly Cloudy
2:30 PM 48.2 °F - 32.0 °F 54% 30.15 in 6.2 mi Variable 2.2 mph - N/A   Mostly Cloudy
3:00 PM 48.2 °F - 32.0 °F 54% 30.15 in 6.2 mi North 4.5 mph - N/A   Mostly Cloudy
3:30 PM 48.2 °F - 32.0 °F 54% 30.15 in 6.2 mi NNW 4.5 mph - N/A   Mostly Cloudy
4:00 PM 49 °F - 31 °F 37% 30.15 in 31 mi NNW 6.7 mph - -   Scattered Clouds
4:00 PM 48.2 °F - 30.2 °F 50% 30.15 in 6.2 mi NNW 6.7 mph - N/A   Mostly Cloudy
4:30 PM 48.2 °F - 32.0 °F 54% 30.15 in 6.2 mi NW 6.7 mph - N/A   Mostly Cloudy
5:00 PM 48.2 °F - 32.0 °F 54% 30.15 in 6.2 mi NW 4.5 mph - N/A   Mostly Cloudy
5:30 PM 48.2 °F - 32.0 °F 54% 30.15 in 6.2 mi NW 4.5 mph - N/A   Mostly Cloudy
6:00 PM 48.2 °F - 32.0 °F 54% 30.15 in 6.2 mi NW 6.7 mph - N/A   Mostly Cloudy
6:30 PM 48.2 °F - 32.0 °F 54% 30.15 in 6.2 mi NW 6.7 mph - N/A   Mostly Cloudy
7:00 PM 48.2 °F - 30.2 °F 50% 30.12 in 6.2 mi WNW 6.7 mph - N/A   Mostly Cloudy
7:30 PM 48.2 °F - 30.2 °F 50% 30.12 in 6.2 mi WNW 6.7 mph - N/A   Mostly Cloudy
8:00 PM 46.4 °F 43.0 °F 30.2 °F 53% 30.15 in 6.2 mi NW 6.7 mph - N/A   Mostly Cloudy
8:30 PM 44.6 °F 42.3 °F 30.2 °F 57% 30.15 in 6.2 mi NNW 4.5 mph - N/A   Mostly Cloudy
9:00 PM 42.8 °F 40.2 °F 28.4 °F 57% 30.12 in 6.2 mi NW 4.5 mph - N/A   Mostly Cloudy
9:30 PM 41.0 °F 38.1 °F 28.4 °F 61% 30.12 in 6.2 mi NNW 4.5 mph - N/A   Scattered Clouds
10:00 PM 41 °F - 30 °F 53% 30.18 in 31 mi NW 4.5 mph - -   Clear
10:00 PM 41.0 °F 38.1 °F 30.2 °F 65% 30.12 in 6.2 mi NW 4.5 mph - N/A   Scattered Clouds
10:30 PM 41.0 °F 38.1 °F 30.2 °F 65% 30.12 in 6.2 mi NW 4.5 mph - N/A   Scattered Clouds
11:00 PM 39.2 °F - 28.4 °F 65% 30.12 in 6.2 mi NW 2.2 mph - N/A   Scattered Clouds
11:30 PM 37.4 °F 33.9 °F 28.4 °F 70% 30.12 in 6.2 mi West 4.5 mph - N/A   Scattered Clouds